Weather History for Sana, Yemen

Change the Weather History Date:

Saturday, February 16, 2013

  Actual Average Record
Temperature  
Mean Temperature 59 °F -  
Max Temperature 78 °F 76 °F 84 °F (2003)
Min Temperature 40 °F 52 °F 40 °F (2013)
Degree Days  
Heating Degree Days 6    
Growing Degree Days 9 (Base 50)    
Moisture  
Dew Point 25 °F    
Average Humidity 27    
Maximum Humidity 53    
Minimum Humidity 4    
Precipitation  
Precipitation 0.00 in - - ()
Sea Level Pressure  
Sea Level Pressure 30.28 in    
Wind  
Wind Speed 4 mph ()    
Max Wind Speed 15 mph    
Max Gust Speed -    
Visibility 6.1 miles    
Events      
Averages and records for this station are not official NWS values.
T = Trace of Precipitation, MM = Missing Value Source: Averaged Metar Reports

Daily Weather History Graph

Daily Weather History Graph

Search for Another Location

Airport:

Trip Planner

Search our weather history database for the weather conditions in past years. The results will help you decide how hot, cold, wet, or windy it might be!

Date:

Astronomy

Feb. 16, 2013 Rise Set
Actual Time 6:27 AM AST 6:07 PM AST
Civil Twilight 6:05 AM AST 6:28 PM AST
Nautical Twilight 5:40 AM AST 6:54 PM AST
Astronomical Twilight 5:15 AM AST 7:19 PM AST
Moon 10:32 AM AST (2/16) 11:33 PM AST (2/16)
Length of Visible Light 12h 23m
Length of Day
11h 39m
Waxing Crescent, 36% of the Moon is Illuminated
Feb 16
Waxing Crescent
Feb 17
First Quarter
Feb 25
Full
Mar 5
Last Quarter
Mar 11
New

Hourly Weather History & Observations

Time (AST) Temp. Windchill Dew Point Humidity Pressure Visibility Wind Dir Wind Speed Gust Speed Precip Events Conditions
12:00 AM 53 °F - 29 °F 28%  in 6 mi Calm Calm - -  
12:00 AM 53.6 °F - 30.2 °F 41% 30.33 in - Calm Calm - N/A   Clear
1:00 AM 51.8 °F - 30.2 °F 44% 30.30 in - Calm Calm - N/A   Clear
2:00 AM 48.2 °F - 26.6 °F 43% 30.30 in - Calm Calm - N/A   Clear
3:00 AM 48 °F - 29 °F 36%  in 6 mi WSW 3.5 mph - -  
3:00 AM 48.2 °F - 30.2 °F 50% 30.27 in - WSW 3.5 mph - N/A   Clear
4:00 AM 46.4 °F 45.2 °F 26.6 °F 46% 30.27 in - WSW 3.5 mph - N/A   Clear
5:00 AM 44.6 °F 43.1 °F 26.6 °F 49% 30.27 in - WSW 3.5 mph - N/A   Clear
6:00 AM 43 °F - 26 °F 37%  in 6 mi Calm Calm - -  
6:00 AM 42.8 °F - 24.8 °F 49% 30.30 in - Calm Calm - N/A   Clear
7:00 AM 42.8 °F - 26.6 °F 53% 30.30 in - Calm Calm - N/A   Clear
8:00 AM 50.0 °F - 26.6 °F 40% 30.33 in - Calm Calm - N/A   Clear
9:00 AM 59 °F - 29 °F 20%  in 6 mi Calm Calm - -  
9:00 AM 59.0 °F - 28.4 °F 31% 30.33 in - Calm Calm - N/A   Clear
10:00 AM 64.4 °F - 32.0 °F 30% 30.33 in - NNE 3.5 mph - N/A   Clear
11:00 AM 69.8 °F - 23.0 °F 17% 30.33 in - ENE 4.6 mph - N/A   Clear
12:00 PM 74 °F - 14 °F 4%  in 6 mi NE 5.8 mph - -  
12:00 PM 75.2 °F - 14.0 °F 10% 30.30 in - NE 5.8 mph - N/A   Clear
1:00 PM 77.0 °F - 19.4 °F 12% 30.27 in - NE 12.7 mph - N/A   Clear
2:00 PM 78.8 °F - 24.8 °F 14% 30.24 in - NE 13.8 mph - N/A   Clear
3:00 PM 76 °F - 25 °F 7%  in 6 mi NE 15.0 mph - -   Scattered Clouds
3:00 PM 77.0 °F - 24.8 °F 14% 30.21 in 6.2 mi NE 15.0 mph - N/A   Partly Cloudy
4:00 PM 75.2 °F - 24.8 °F 15% 30.21 in 6.2 mi NNE 13.8 mph - N/A   Partly Cloudy
5:00 PM 71.6 °F - 23.0 °F 16% 30.24 in 6.2 mi NNE 15.0 mph - N/A   Partly Cloudy
6:00 PM 69 °F - 21 °F 8%  in 6 mi NNE 13.8 mph - -   Scattered Clouds
6:00 PM 69.8 °F - 21.2 °F 16% 30.24 in 6.2 mi NNE 13.8 mph - N/A   Partly Cloudy
7:00 PM 66.2 °F - 19.4 °F 17% 30.27 in - NNE 8.1 mph - N/A   Clear
8:00 PM 62.6 °F - 24.8 °F 24% 30.30 in - NE 4.6 mph - N/A   Clear
9:00 PM 61 °F - 23 °F 13%  in 6 mi East 5.8 mph - -  
9:00 PM 60.8 °F - 23.0 °F 23% 30.30 in - East 5.8 mph - N/A   Clear
10:00 PM 57.2 °F - 21.2 °F 25% 30.30 in - NNW 3.5 mph - N/A   Clear
11:00 PM 55.4 °F - 19.4 °F 25% 30.30 in - Variable 2.3 mph - N/A   Clear